User: anonymous   Login
Location: Unspecified
(0.0000°N, 0.0000°E)
Time: 19:15:13
(UTC+00:00)
Language:

STARLINK-33911 - Orbit

View from above orbital plane
View from above orbital plane
View from above satellite
View from above satellite

Ground track
Ground track

The orbit is defined by the following mean orbital elements,

1 63777U          26144.92532800 +.00000000 +00000-0 +54893-3 0 00001
2 63777  43.0029 334.8393 0001891 285.5138  74.5505 15.27599215    06
Epoch (UTC): 24 May 2026 22:12:28
Eccentricity: 0.0001891
inclination: 43.0029°
perigee height: 482 km
apogee height: 484 km
right ascension of ascending node: 334.8393°
argument of perigee: 285.5138°
revolutions per day: 15.27599215
mean anomaly at epoch: 74.5505°

The dashed part of the orbit path shows where the satellite is in the earth's shadow,  

DLR